Home > Weather > Bridlington > Past weeks

Flag for United Kingdom Past Weather in Bridlington, England, United Kingdom — Yesterday and Last 2 Weeks

Now
64 °F

Mild.


Feels Like: 64 °F
Forecast: 55 / 63 °F
Wind: 10 mph from West

Location: Bridlington Mrsc

Current Time: Jun 30, 2016 at 1:31:40 PM

Latest Report: Jun 30, 2016 at 12:00 PM


Visibility: N/A

Pressure: 29.72 "Hg

Humidity: 54%

Dew Point: 47 °F

Location of BridlingtonLocation

Past Weather in Bridlington — Graph

°F

Bridlington Temperature Yesterday

Maximum temperature yesterday: 62 °F (at 6:00 PM)
Minimum temperature yesterday: 49 °F (at 5:00 AM)
Average temperature yesterday: 56 °F

High & Low Weather Summary for the Past Weeks

 TemperatureHumidityPressure
High71 °F (Jun 24, 4:00 PM)100% (Jun 16, 3:00 AM)30.20 "Hg (Jun 16, 3:00 AM)
Low46 °F (Jun 19, 3:00 AM)50% (Jun 24, 4:00 PM)29.38 "Hg (Jun 15, 12:00 PM)
Average57 °F84%29.88 "Hg
* Reported Jun 15 12:00 PM — Jun 30 12:00 PM, Bridlington, Weather by CustomWeather, © 2016

Note: Actual official high and low records may vary slightly from our data, if they occured in-between our weather recording intervals... More about our weather records

Advertising

Bridlington Weather History for the Previous 24 Hours

Scroll right to see more
 ConditionsComfort  
Time TempWeatherWind HumidityBarometerVisibility
12:00 PM
Thu, Jun 30
64 °FMild.10 mph54%29.72 "HgN/A
11:00 AM65 °FMild.10 mph56%29.72 "HgN/A
10:00 AM62 °FCool.9 mph61%29.71 "HgN/A
9:00 AM61 °FCool.9 mph67%29.70 "HgN/A
8:00 AM59 °FCool.12 mph74%29.69 "HgN/A
7:00 AM51 °FCool.8 mph94%29.68 "HgN/A
6:00 AM51 °FCool.6 mph95%29.67 "HgN/A
5:00 AM51 °FCool.6 mph94%29.66 "HgN/A
4:00 AM51 °FCool.6 mph92%29.65 "HgN/A
3:00 AM51 °FCool.5 mph91%29.65 "HgN/A
2:00 AM51 °FCool.8 mph92%29.64 "HgN/A
1:00 AM51 °FCool.6 mph88%29.63 "HgN/A
12:00 AM52 °FCool.7 mph84%29.62 "HgN/A
11:00 PM
Wed, Jun 29
53 °FCool.6 mph86%29.61 "HgN/A
10:00 PM55 °FCool.7 mph81%29.58 "HgN/A
9:00 PM58 °FCool.9 mph75%29.56 "HgN/A
8:00 PM61 °FCool.16 mph71%29.50 "HgN/A
7:00 PM62 °FCool.17 mph77%29.47 "HgN/A
6:00 PM62 °FCool.14 mph83%29.47 "HgN/A
5:00 PM61 °FCool.24 mph86%29.47 "HgN/A
1:00 PM55 °FCool.25 mph91%29.62 "HgN/A
Weather by CustomWeather, © 2016

See weather overviewHow to use our weather pages